EW8780 Weather Reports


Display with metric or nautical units.
time (UTC)temp
F
wind
direction
speed
MPH
gust
MPH
rain 1hr
in
rain 24hr
in
rain mn
in
humidity
%
barometer
mb
20260902221534 58 234 1.0 7.0 0.28 1.30 1.30 94 1007.9
20260902220032 58 230 0.0 3.0 0.30 1.25 1.25 94 1007.9
20260902214526 58 238 0.0 4.0 0.26 1.15 1.15 94 1007.9
20260902213024 58 226 1.0 4.0 0.24 1.08 1.08 94 1007.9
20260902211525 58 249 0.0 2.0 0.21 1.01 1.01 94 1008.0
20260902210031 58 229 0.0 5.0 0.19 0.95 0.95 93 1008.2
20260902204522 58 270 0.0 5.0 0.19 0.89 0.89 93 1008.1
20260902203021 58 145 1.0 5.0 0.18 0.84 0.84 94 1008.1
20260902201522 58 236 1.0 5.0 0.19 0.80 0.80 93 1008.1
20260902200021 57 192 1.0 6.0 0.18 0.76 0.76 93 1008.2
20260902194524 57 234 0.0 3.0 0.14 0.70 0.70 93 1008.3
20260902193019 57 218 0.0 4.0 0.11 0.66 0.66 93 1008.5
20260902191521 57 206 2.0 8.0 0.10 0.61 0.61 93 1008.6
20260902190024 58 200 1.0 6.0 0.10 0.57 0.57 94 1008.5
20260902184517 58 189 1.0 4.0 0.11 0.56 0.56 94 1008.7
20260902183016 58 186 1.0 11.0 0.15 0.55 0.55 94 1008.9
20260902181518 58 200 1.0 5.0 0.15 0.51 0.51 94 1008.7
20260902180015 58 205 1.0 4.0 0.15 0.48 0.48 94 1008.8
20260902174514 58 178 0.0 3.0 0.14 0.46 0.45 94 1008.9
20260902173013 58 207 1.0 5.0 0.14 0.41 0.40 94 1008.8
20260902171514 58 202 2.0 8.0 0.15 0.37 0.36 94 1008.8
20260902170012 58 254 2.0 5.0 0.16 0.34 0.33 95 1008.7
20260902164513 58 252 0.0 3.0 0.18 0.32 0.30 94 1008.7
20260902163011 58 259 0.0 3.0 0.20 0.28 0.26 94 1008.6
20260902161511 57 214 0.0 3.0 0.16 0.23 0.21 94 1008.6
20260902160015 57 82 0.0 0.0 0.13 0.18 0.17 94 1008.4
20260902154506 57 25 0.0 0.0 0.09 0.15 0.11 94 1008.5
20260902153002 57 25 0.0 0.0 0.05 0.10 0.06 93 1008.3
20260902151600 57 25 0.0 2.0 0.05 0.09 0.05 93 1008.3
20260902150100 57 31 0.0 3.0 0.03 0.07 0.03 93 1008.1
20260902144600 57 9 0.0 0.0 0.02 0.07 0.02 93 1008.1
20260902143056 58 9 0.0 0.0 0.01 0.06 0.01 92 1008.3
20260902141555 58 5 0.0 1.0 0.00 0.05 0.00 91 1008.4
20260902140054 57 5 0.0 4.0 0.00 0.05 0.00 91 1008.4
20260902134555 58 5 0.0 1.0 0.00 0.05 0.00 91 1008.5
20260902133051 58 255 0.0 2.0 0.00 0.05 0.00 91 1008.7
20260902131550 58 221 0.0 1.0 0.00 0.05 0.00 91 1008.9
20260902130046 58 238 0.0 3.0 0.00 0.05 0.00 91 1009.1
20260902124545 58 239 1.0 2.0 0.00 0.05 0.00 91 1009.0
20260902123044 58 240 0.0 1.0 0.00 0.05 0.00 90 1009.0
20260902121544 58 240 0.0 2.0 0.00 0.05 0.00 90 1009.0
20260902120042 58 236 1.0 5.0 0.00 0.05 0.00 91 1009.1
20260902114609 58 209 1.0 4.0 0.00 0.05 0.00 92 1009.3
20260902113048 58 317 0.0 2.0 0.00 0.05 0.00 92 1009.0
20260902111538 58 257 0.0 0.0 0.00 0.05 0.00 92 1009.1
20260902110036 58 257 0.0 0.0 0.00 0.05 0.00 92 1009.5
20260902104536 58 257 0.0 0.0 0.00 0.05 0.00 91 1009.3
20260902103033 58 257 0.0 0.0 0.00 0.05 0.00 91 1009.4
20260902101533 58 257 0.0 0.0 0.00 0.05 0.00 91 1009.5
20260902100029 59 257 0.0 0.0 0.00 0.05 0.00 90 1009.7
20260902094526 59 257 0.0 0.0 0.00 0.05 0.00 88 1009.9
20260902093026 60 257 0.0 3.0 0.00 0.05 0.00 84 1010.1
20260902091522 60 232 0.0 4.0 0.00 0.05 0.00 83 1010.4
20260902090021 60 240 2.0 4.0 0.00 0.05 0.00 84 1010.4
20260902084519 60 227 0.0 2.0 0.00 0.05 0.00 85 1010.6
20260902083020 60 169 0.0 4.0 0.00 0.05 0.00 85 1010.6
20260902081516 60 232 1.0 3.0 0.00 0.05 0.00 86 1010.7
20260902080015 60 222 1.0 4.0 0.00 0.05 0.00 85 1010.7
20260902074522 60 211 1.0 3.0 0.00 0.05 0.00 85 1010.8
20260902073013 60 238 0.0 2.0 0.00 0.05 0.00 85 1010.9
20260902071514 60 238 1.0 4.0 0.00 0.05 0.00 85 1010.6
20260902070007 59 225 0.0 2.0 0.00 0.05 0.00 88 1010.5
20260902064507 59 225 0.0 3.0 0.00 0.05 0.05 90 1010.5
20260902063006 59 182 0.0 0.0 0.00 0.05 0.05 92 1010.5
20260902061514 59 182 0.0 0.0 0.00 0.05 0.05 92 1010.3
20260902060009 59 182 0.0 2.0 0.00 0.05 0.05 91 1010.4
20260902054505 59 182 0.0 2.0 0.00 0.05 0.05 91 1010.7
20260902053004 59 182 0.0 2.0 0.00 0.05 0.05 91 1010.7
20260902051503 59 182 1.0 3.0 0.00 0.05 0.05 91 1010.8
20260902050004 59 182 0.0 2.0 0.00 0.05 0.05 90 1010.8
20260902044502 59 182 0.0 2.0 0.00 0.05 0.05 90 1011.0
20260902043001 59 182 0.0 1.0 0.00 0.05 0.05 89 1010.9
20260902041502 60 182 0.0 1.0 0.00 0.05 0.05 87 1010.9
20260902040100 60 182 0.0 5.0 0.00 0.05 0.05 86 1011.0
20260902034603 60 228 1.0 4.0 0.00 0.05 0.05 86 1011.1
20260902033058 61 230 2.0 5.0 0.00 0.05 0.05 86 1011.1
20260902031614 61 217 3.0 7.0 0.00 0.05 0.05 86 1010.9
20260902030058 61 250 2.0 4.0 0.00 0.05 0.05 86 1010.9
20260902024608 61 238 2.0 5.0 0.00 0.05 0.05 85 1011.0
20260902023103 61 228 0.0 3.0 0.00 0.05 0.05 85 1010.9
20260902021603 62 165 1.0 5.0 0.00 0.05 0.05 84 1011.0
20260902020054 62 247 2.0 4.0 0.00 0.05 0.05 83 1010.9
20260902014554 63 246 3.0 5.0 0.00 0.05 0.05 82 1010.9
20260902013053 64 180 2.0 6.0 0.00 0.05 0.05 81 1010.8
20260902011559 63 153 1.0 5.0 0.00 0.05 0.05 81 1010.7
20260902010052 64 227 2.0 7.0 0.00 0.05 0.05 80 1010.6
20260902004552 65 183 2.0 7.0 0.00 0.05 0.05 78 1010.5
20260902003050 65 215 2.0 6.0 0.00 0.05 0.05 80 1010.6
20260902001603 64 229 2.0 6.0 0.00 0.05 0.05 80 1010.7
20260902000047 65 218 3.0 7.0 0.00 0.05 0.05 81 1010.7
20260901234547 64 187 3.0 9.0 0.00 0.05 0.05 82 1010.8
20260901233054 64 227 3.0 10.0 0.00 0.05 0.05 84 1010.7
20260901231543 63 236 3.0 7.0 0.00 0.05 0.05 87 1010.8
20260901230042 63 240 2.0 5.0 0.00 0.05 0.05 88 1010.8
20260901224542 62 265 3.0 6.0 0.00 0.05 0.05 91 1010.9
20260901223042 62 230 1.0 4.0 0.00 0.05 0.05 92 1011.0